Weather in Ulbroka

Latvia     56°56′22″N   24°17′17″E
temp.,
°C
wind,
m/s
gust,
m/s
humid.,
%
clouds,
%
prec.,
mm/h
press.,
hPa
HPBL,
m
19 september, sun
sun1900:00+7ne412710 0.0 1020582
03:00+5ne512770 0.0 1019520
06:00+4ne513830 0.0 1019542
09:00+6ne513780 0.0 1019626
12:00+11ene69505 0.0 10191056
15:00+14ene69395 0.0 10181534
18:00+12ne594820 0.0 10191313
21:00+8ene511642 0.0 1020846
20 september, mon
mon2000:00+6ne412703 0.0 1021698
03:00+5nne4117633 0.0 1020593
06:00+4nne4117997 0.0 1021543
09:00+7ne51170100 0.0 1021726
12:00+9ne5962100 0.0 1021897
15:00+10ne4755100 0.0 10211152
18:00+10ne4753100 0.0 10211231
21:00+7ne396589 0.0 1022373
21 september, tue
tue2100:00+5ne377424 0.0 1023198
03:00+4ne267725 0.0 1023152
06:00+3ne26825 0.0 1023158
09:00+5ne24715 0.0 1023238
12:00+9n345323 0.0 1022823
15:00+10nnw445112 0.0 10221006
18:00+9nnw355775 0.0 1022682
21:00+7n256591 0.0 1022147
22 september, wed
wed2200:00+5ne12715 0.0 102275
03:00+4e11724 0.0 102232
06:00+2ene11730 0.0 102243
09:00+5ne12636 0.0 1022153
12:00+10nnw235276 0.0 1022717
15:00+11nnw3250100 0.0 1021980
18:00+9nnw2259100 0.0 1019354
21:00+6ssw1171100 0.0 101816
23 september, thu
thu2300:00+5s247398 0.0 101675
03:00+4s3776100 0.0 1013152
06:00+5sse3975100 0.0 1010241
09:00+7sse41171100 0.0 1006344
12:00+7sse51391100 1.1 1002460
15:00+8sse51196100 2.4 998539
18:00+8sse3898100 2.3 996373
21:00+9w1296100 4.8 99554